Terminal Aerodrome Forecast
Issued by NWS Mt. Holly, NJ

Home | Current Version | Previous Version | Text Only | Print | Product List | Glossary On
Versions: 1 2 3 4 5 6 7 8 9 10 11 12 13 14 15 16
000
FTUS41 KPHI 182300
TAFILG
TAF
KILG 182320Z 1900/1924 27003KT P6SM SCT060
     FM190500 36006KT P6SM FEW080
     FM191400 05009KT P6SM FEW060
     FM192000 13011KT P6SM SCT040=

USA.gov is the U.S. government's official web portal to all federal, state and local government web resources and services.